Date String (YYYY-MM-DD hh:mm:ss) UTC,Instrument flags,Ambient pressure (hPa),Sample flow (lpm),Bypass flow (lpm),Sample temperature (°C),Ambient temperature (°C),ASC tube jacket temperature (°C),LED temperature (°C),Box temperature (°C),Sample RH (%),Span deviation,Mass concentration (μg/m³),Mass concentration (μg/m³),Mass concentration (μg/m³)
DateTimeUTC,F1_M11,P_M11,Q1_M11,Q2_M11,T1_M11,T2_M11,T3_M11,T4_M11,T5_M11,U1_M11,ZSPAN_M11,X2_M11,X0_M11,X1_M11
2022-10-29 00:00:00,,0830.2,4.99,0.00,30.1,28.8,00.0,38.8,31.9,07.5,0000.0,0003.13,0005.69,0002.64
2022-10-29 00:01:00,,0830.1,5.02,0.00,30.1,28.8,00.0,38.8,31.9,07.5,0000.0,0003.14,0005.76,0002.64
2022-10-29 00:02:00,,0830.1,4.99,0.00,30.1,28.8,00.0,38.8,31.9,07.5,0000.0,0003.14,0005.79,0002.64
2022-10-29 00:03:00,,0830.2,4.99,0.00,30.1,28.8,00.0,38.9,32.0,07.5,0000.0,0003.14,0005.68,0002.64
2022-10-29 00:04:00,,0830.2,5.01,0.00,30.2,28.8,00.0,38.9,32.0,07.5,0000.0,0003.15,0005.77,0002.65
2022-10-29 00:05:00,,0830.2,5.01,0.00,30.2,28.8,00.0,38.9,32.0,07.5,0000.0,0003.16,0006.75,0002.66
2022-10-29 00:06:00,,0830.2,4.99,0.00,30.2,28.8,00.0,38.9,32.0,07.5,0000.0,0003.17,0006.81,0002.66
2022-10-29 00:07:00,,0830.2,4.99,0.00,30.2,28.8,00.0,38.9,32.0,07.5,0000.0,0003.17,0006.88,0002.67
2022-10-29 00:08:00,,0830.2,5.02,0.00,30.2,28.8,00.0,38.9,32.0,07.9,0000.0,0003.17,0007.68,0002.68
2022-10-29 00:09:00,,0830.1,4.99,0.00,30.2,28.8,00.0,38.9,32.0,08.0,0000.0,0003.16,0007.44,0002.71
2022-10-29 00:10:00,,0830.2,5.02,0.00,30.2,28.8,00.0,38.9,32.0,08.0,0000.0,0003.13,0007.25,0002.72
2022-10-29 00:11:00,,0830.2,4.99,0.00,30.2,28.8,00.0,38.9,32.0,08.2,0000.0,0003.12,0007.15,0002.75
2022-10-29 00:12:00,,0830.2,4.99,0.00,30.2,28.7,00.0,38.9,32.0,08.4,0000.0,0003.14,0007.15,0002.77
2022-10-29 00:13:00,,0830.2,5.02,0.00,30.2,28.7,00.0,38.9,31.9,08.5,0000.0,0003.17,0007.18,0002.80
2022-10-29 00:14:00,,0830.2,4.99,0.00,30.2,28.6,00.0,39.0,31.9,08.5,0000.0,0003.19,0007.26,0002.83
2022-10-29 00:15:00,,0830.2,4.99,0.00,30.2,28.6,00.0,39.0,31.9,08.5,0000.0,0003.20,0007.28,0002.85
2022-10-29 00:16:00,,0830.2,5.02,0.00,30.2,28.6,00.0,39.0,31.9,08.5,0000.0,0003.21,0006.51,0002.87
2022-10-29 00:17:00,,0830.2,4.99,0.00,30.1,28.6,00.0,39.0,31.9,08.5,0000.0,0003.21,0006.40,0002.89
2022-10-29 00:18:00,,0830.2,4.99,0.00,30.1,28.5,00.0,39.0,31.9,08.6,0000.0,0003.20,0006.88,0002.91
2022-10-29 00:19:00,,0830.2,5.01,0.00,30.1,28.5,00.0,38.9,31.9,08.6,0000.0,0003.22,0006.69,0002.94
2022-10-29 00:20:00,,0830.2,4.99,0.00,30.1,28.5,00.0,38.9,31.9,08.7,0000.0,0003.24,0007.12,0002.96
2022-10-29 00:21:00,,0830.3,5.02,0.00,30.1,28.5,00.0,38.9,31.8,08.7,0000.0,0003.26,0007.98,0002.97
2022-10-29 00:22:00,,0830.3,4.99,0.00,30.1,28.4,00.0,38.9,31.8,08.7,0000.0,0003.30,0008.47,0002.99
2022-10-29 00:23:00,,0830.2,5.01,0.00,30.0,28.4,00.0,38.9,31.8,08.7,0000.0,0003.35,0008.58,0003.02
2022-10-29 00:24:00,,0830.2,4.98,0.00,30.0,28.4,00.0,38.9,31.7,08.7,0000.0,0003.36,0008.65,0003.04
2022-10-29 00:25:00,,0830.2,5.01,0.00,30.0,28.4,00.0,38.9,31.7,08.7,0000.0,0003.37,0008.67,0003.05
2022-10-29 00:26:00,,0830.2,4.99,0.00,30.0,28.4,00.0,38.9,31.7,08.7,0000.0,0003.38,0009.09,0003.06
2022-10-29 00:27:00,,0830.2,5.00,0.00,30.0,28.4,00.0,38.9,31.7,08.8,0000.0,0003.38,0009.21,0003.07
2022-10-29 00:28:00,,0830.2,5.01,0.00,30.0,28.4,00.0,38.9,31.7,08.9,0000.0,0003.41,0009.11,0003.08
2022-10-29 00:29:00,,0830.2,4.98,0.00,30.0,28.3,00.0,38.9,31.7,09.2,0000.0,0003.44,0008.83,0003.11
2022-10-29 00:30:00,,0830.2,5.01,0.00,30.0,28.3,00.0,38.9,31.7,09.4,0000.0,0003.47,0008.68,0003.13
2022-10-29 00:31:00,,0830.2,4.99,0.00,29.9,28.3,00.0,38.8,31.7,09.4,0000.0,0003.48,0008.02,0003.15
2022-10-29 00:32:00,,0830.2,4.99,0.00,29.9,28.3,00.0,38.8,31.7,09.4,0000.0,0003.49,0007.35,0003.19
2022-10-29 00:33:00,,0830.2,5.01,0.00,29.9,28.2,00.0,38.8,31.7,09.5,0000.0,0003.54,0006.87,0003.22
2022-10-29 00:34:00,,0830.2,4.99,0.00,29.9,28.2,00.0,38.8,31.6,09.5,0000.0,0003.53,0006.89,0003.24
2022-10-29 00:35:00,,0830.1,5.01,0.00,29.9,28.2,00.0,38.8,31.6,09.3,0000.0,0003.55,0007.50,0003.25
2022-10-29 00:36:00,,0830.1,4.99,0.00,29.9,28.2,00.0,38.8,31.6,09.4,0000.0,0003.56,0007.52,0003.27
2022-10-29 00:37:00,,0830.2,5.00,0.00,29.9,28.2,00.0,38.8,31.6,09.4,0000.0,0003.56,0006.86,0003.27
2022-10-29 00:38:00,,0830.2,5.00,0.00,29.9,28.1,00.0,38.8,31.5,09.4,0000.0,0003.59,0006.93,0003.27
2022-10-29 00:39:00,,0830.1,5.00,0.00,29.8,28.1,00.0,38.8,31.6,09.5,0000.0,0003.60,0006.98,0003.28
2022-10-29 00:40:00,,0830.2,5.02,0.00,29.8,28.2,00.0,38.7,31.6,09.6,0000.0,0003.62,0007.65,0003.27
2022-10-29 00:41:00,,0830.2,4.98,0.00,29.8,28.1,00.0,38.7,31.5,09.7,0000.0,0003.60,0007.93,0003.26
2022-10-29 00:42:00,,0830.2,5.01,0.00,29.8,28.1,00.0,38.7,31.5,09.7,0000.0,0003.61,0008.30,0003.24
2022-10-29 00:43:00,,0830.2,4.99,0.00,29.8,28.1,00.0,38.7,31.5,09.7,0000.0,0003.60,0008.70,0003.21
2022-10-29 00:44:00,,0830.2,5.01,0.00,29.8,28.1,00.0,38.7,31.5,09.7,0000.0,0003.53,0008.55,0003.18
2022-10-29 00:45:00,,0830.2,5.00,0.00,29.8,28.1,00.0,38.7,31.5,09.8,0000.0,0003.52,0008.37,0003.16
2022-10-29 00:46:00,,0830.1,4.99,0.00,29.8,28.1,00.0,38.7,31.5,09.8,0000.0,0003.50,0007.98,0003.16
2022-10-29 00:47:00,,0830.2,5.02,0.00,29.8,28.1,00.0,38.7,31.5,09.8,0000.0,0003.49,0007.96,0003.16
2022-10-29 00:48:00,,0830.1,4.99,0.00,29.8,28.1,00.0,38.7,31.5,09.8,0000.0,0003.51,0008.01,0003.17
2022-10-29 00:49:00,,0830.1,4.99,0.00,29.8,28.1,00.0,38.7,31.4,09.9,0000.0,0003.51,0008.06,0003.17
2022-10-29 00:50:00,,0830.1,5.01,0.00,29.7,28.0,00.0,38.7,31.4,10.0,0000.0,0003.52,0008.28,0003.19
2022-10-29 00:51:00,,0830.1,5.00,0.00,29.7,28.0,00.0,38.7,31.4,10.0,0000.0,0003.52,0008.03,0003.20
2022-10-29 00:52:00,,0830.1,5.01,0.00,29.7,28.0,00.0,38.6,31.4,10.1,0000.0,0003.54,0007.43,0003.22
2022-10-29 00:53:00,,0830.1,5.00,0.00,29.7,28.0,00.0,38.6,31.4,10.2,0000.0,0003.54,0007.09,0003.24
2022-10-29 00:54:00,,0830.1,5.01,0.00,29.7,28.0,00.0,38.6,31.4,10.2,0000.0,0003.56,0006.22,0003.26
2022-10-29 00:55:00,,0830.1,4.99,0.00,29.7,28.0,00.0,38.6,31.4,10.2,0000.0,0003.59,0006.44,0003.28
2022-10-29 00:56:00,,0830.2,5.02,0.00,29.7,28.0,00.0,38.6,31.4,10.2,0000.0,0003.62,0006.60,0003.28
2022-10-29 00:57:00,,0830.1,4.99,0.00,29.7,28.0,00.0,38.6,31.4,10.2,0000.0,0003.66,0006.85,0003.28
2022-10-29 00:58:00,,0830.1,4.99,0.00,29.6,27.9,00.0,38.6,31.4,10.3,0000.0,0003.66,0006.89,0003.28
2022-10-29 00:59:00,,0830.1,5.00,0.00,29.6,27.9,00.0,38.5,31.3,10.3,0000.0,0003.66,0006.92,0003.29
